N2308E KEMM-KTVY

Flight info

Callsign N2308E
Flight time 0h 31m
Altitude 24000
Route KEMRR5 FBR ODUCE J173 TCH
Aircraft C525/L-SDFGRWY/SB1

Departure

Time 2026-04-27 01:31
Airport Kemmerer Municipal Airport (KEMM)

Arrival

Time 2026-04-27 02:03
Airport Bolinder Field Tooele Valley Airport (KTVY)
Time Latitude Longitude Altitude Speed Heading
2026-04-27 01:18 41.82131 -110.55551 7267 ft 0 kts 174°
2026-04-27 01:26 41.82118 -110.55550 7267 ft 3 kts 190°
2026-04-27 01:27 41.82111 -110.55569 7268 ft 1 kts 261°
2026-04-27 01:27 41.82110 -110.55584 7269 ft 3 kts 275°
2026-04-27 01:27 41.82120 -110.55630 7271 ft 4 kts 270°
2026-04-27 01:27 41.82120 -110.55636 7272 ft 0 kts 265°
2026-04-27 01:28 41.82119 -110.55655 7273 ft 4 kts 265°
2026-04-27 01:28 41.82099 -110.55718 7274 ft 8 kts 198°
2026-04-27 01:28 41.82026 -110.55711 7273 ft 12 kts 174°
2026-04-27 01:29 41.81918 -110.55695 7271 ft 18 kts 174°
2026-04-27 01:29 41.81778 -110.55675 7270 ft 22 kts 172°
2026-04-27 01:29 41.81615 -110.55652 7269 ft 25 kts 173°
2026-04-27 01:29 41.81427 -110.55624 7266 ft 28 kts 174°
2026-04-27 01:30 41.81221 -110.55595 7263 ft 30 kts 172°
2026-04-27 01:30 41.81091 -110.55557 7261 ft 11 kts 209°
2026-04-27 01:30 41.81136 -110.55579 7261 ft 9 kts 354°
2026-04-27 01:30 41.81382 -110.55615 7266 ft 60 kts 351°
2026-04-27 01:31 41.81950 -110.55697 7271 ft 103 kts 353°
2026-04-27 01:31 41.82773 -110.55808 7352 ft 127 kts 351°
2026-04-27 01:31 41.83671 -110.55913 7657 ft 132 kts 350°
2026-04-27 01:31 41.84607 -110.56039 7975 ft 138 kts 349°
2026-04-27 01:32 41.85571 -110.56129 8304 ft 144 kts 360°
2026-04-27 01:32 41.86548 -110.55696 8689 ft 148 kts 13°
2026-04-27 01:32 41.87363 -110.54826 8953 ft 168 kts 51°
2026-04-27 01:32 41.88149 -110.53858 9468 ft 151 kts 32°
2026-04-27 01:33 41.88610 -110.52466 9513 ft 191 kts 88°
2026-04-27 01:33 41.88130 -110.50785 9915 ft 200 kts 130°
2026-04-27 01:33 41.86990 -110.49805 10361 ft 198 kts 169°
2026-04-27 01:33 41.85647 -110.49663 10932 ft 188 kts 185°
2026-04-27 01:34 41.84371 -110.49644 11443 ft 186 kts 185°
2026-04-27 01:34 41.83059 -110.49881 11745 ft 192 kts 200°
2026-04-27 01:34 41.81794 -110.50316 12325 ft 185 kts 195°
2026-04-27 01:34 41.80542 -110.50690 12733 ft 187 kts 197°
2026-04-27 01:35 41.79351 -110.50987 13409 ft 170 kts 192°
2026-04-27 01:35 41.78158 -110.51080 13773 ft 174 kts 182°
2026-04-27 01:35 41.76959 -110.50967 14151 ft 174 kts 177°
2026-04-27 01:35 41.75763 -110.50745 14522 ft 175 kts 175°
2026-04-27 01:36 41.74552 -110.50476 14874 ft 176 kts 174°
2026-04-27 01:36 41.73349 -110.50201 15223 ft 177 kts 174°
2026-04-27 01:36 41.72133 -110.49926 15564 ft 178 kts 174°
2026-04-27 01:36 41.70897 -110.49650 15896 ft 180 kts 175°
2026-04-27 01:37 41.69616 -110.49371 16014 ft 196 kts 174°
2026-04-27 01:37 41.68189 -110.49062 16032 ft 218 kts 174°
2026-04-27 01:37 41.66622 -110.48721 16029 ft 241 kts 174°
2026-04-27 01:37 41.64886 -110.48340 16015 ft 262 kts 173°
2026-04-27 01:38 41.63021 -110.47929 16009 ft 280 kts 173°
2026-04-27 01:38 41.61045 -110.47491 16008 ft 296 kts 173°
2026-04-27 01:38 41.58975 -110.47034 16005 ft 309 kts 173°
2026-04-27 01:38 41.56827 -110.46561 16007 ft 321 kts 173°
2026-04-27 01:39 41.54586 -110.46067 16015 ft 330 kts 173°
2026-04-27 01:39 41.52278 -110.45561 16017 ft 338 kts 173°
2026-04-27 01:39 41.49957 -110.45053 16018 ft 344 kts 173°
2026-04-27 01:39 41.47569 -110.44531 16022 ft 349 kts 173°
2026-04-27 01:40 41.45150 -110.44005 16024 ft 352 kts 173°
2026-04-27 01:40 41.42744 -110.43810 16006 ft 345 kts 185°
2026-04-27 01:40 41.40429 -110.44366 16004 ft 340 kts 199°
2026-04-27 01:40 41.38286 -110.45664 16015 ft 335 kts 213°
2026-04-27 01:41 41.36451 -110.47549 16023 ft 331 kts 225°
2026-04-27 01:41 41.34991 -110.49852 16022 ft 328 kts 237°
2026-04-27 01:41 41.33900 -110.52524 16024 ft 326 kts 248°
2026-04-27 01:41 41.33161 -110.55347 16030 ft 325 kts 253°
2026-04-27 01:42 41.32439 -110.58173 16026 ft 325 kts 251°
2026-04-27 01:42 41.31603 -110.60958 16027 ft 325 kts 248°
2026-04-27 01:42 41.30737 -110.63724 16033 ft 325 kts 249°
2026-04-27 01:42 41.29860 -110.66496 16031 ft 325 kts 248°
2026-04-27 01:43 41.28971 -110.69247 16023 ft 324 kts 248°
2026-04-27 01:43 41.28065 -110.71992 16020 ft 324 kts 248°
2026-04-27 01:43 41.27156 -110.74720 16025 ft 323 kts 247°
2026-04-27 01:43 41.26246 -110.77430 16023 ft 323 kts 247°
2026-04-27 01:44 41.25332 -110.80148 16021 ft 322 kts 247°
2026-04-27 01:44 41.24424 -110.82851 16024 ft 322 kts 247°
2026-04-27 01:44 41.23502 -110.85598 16027 ft 322 kts 247°
2026-04-27 01:44 41.22602 -110.88287 16032 ft 322 kts 248°
2026-04-27 01:45 41.21695 -110.90995 15986 ft 323 kts 248°
2026-04-27 01:45 41.20774 -110.93735 15979 ft 323 kts 247°
2026-04-27 01:45 41.19868 -110.96432 15978 ft 322 kts 248°
2026-04-27 01:45 41.18959 -110.99136 15974 ft 322 kts 247°
2026-04-27 01:46 41.18047 -111.01850 15977 ft 322 kts 248°
2026-04-27 01:46 41.17132 -111.04567 15974 ft 322 kts 248°
2026-04-27 01:46 41.16214 -111.07289 15970 ft 322 kts 248°
2026-04-27 01:46 41.15306 -111.09979 15972 ft 322 kts 248°
2026-04-27 01:47 41.14393 -111.12682 15968 ft 323 kts 248°
2026-04-27 01:47 41.13474 -111.15398 15965 ft 323 kts 248°
2026-04-27 01:47 41.12561 -111.18096 15972 ft 323 kts 248°
2026-04-27 01:47 41.11639 -111.20818 15969 ft 323 kts 248°
2026-04-27 01:48 41.10715 -111.23538 15969 ft 323 kts 248°
2026-04-27 01:48 41.09803 -111.26228 15970 ft 323 kts 247°
2026-04-27 01:48 41.08881 -111.28941 15961 ft 323 kts 247°
2026-04-27 01:48 41.07955 -111.31659 15967 ft 322 kts 247°
2026-04-27 01:49 41.07038 -111.34353 15969 ft 322 kts 247°
2026-04-27 01:49 41.06113 -111.37065 15961 ft 322 kts 248°
2026-04-27 01:49 41.05199 -111.39742 15963 ft 321 kts 247°
2026-04-27 01:49 41.04277 -111.42439 15970 ft 320 kts 247°
2026-04-27 01:50 41.03361 -111.45120 15973 ft 319 kts 247°
2026-04-27 01:50 41.02445 -111.47795 15972 ft 318 kts 248°
2026-04-27 01:50 41.01538 -111.50428 15972 ft 316 kts 248°
2026-04-27 01:50 41.00630 -111.53073 15985 ft 314 kts 248°
2026-04-27 01:51 40.99728 -111.55713 15980 ft 312 kts 248°
2026-04-27 01:51 40.98835 -111.58312 15988 ft 311 kts 247°
2026-04-27 01:51 40.97947 -111.60894 15992 ft 309 kts 248°
2026-04-27 01:51 40.97051 -111.63498 15981 ft 308 kts 248°
2026-04-27 01:52 40.96170 -111.66070 15989 ft 307 kts 247°
2026-04-27 01:52 40.95380 -111.68659 15990 ft 306 kts 251°
2026-04-27 01:52 40.94712 -111.71313 15986 ft 304 kts 253°
2026-04-27 01:52 40.94114 -111.73992 15987 ft 303 kts 255°
2026-04-27 01:53 40.93527 -111.76685 15989 ft 302 kts 255°
2026-04-27 01:53 40.92939 -111.79331 15792 ft 307 kts 255°
2026-04-27 01:53 40.92311 -111.82048 15423 ft 309 kts 254°
2026-04-27 01:53 40.91647 -111.84763 15051 ft 311 kts 253°
2026-04-27 01:54 40.90974 -111.87477 14680 ft 313 kts 254°
2026-04-27 01:54 40.90300 -111.90200 14309 ft 315 kts 254°
2026-04-27 01:54 40.89619 -111.92956 13937 ft 317 kts 254°
2026-04-27 01:54 40.88928 -111.95755 13565 ft 320 kts 254°
2026-04-27 01:55 40.88241 -111.98540 13200 ft 319 kts 254°
2026-04-27 01:55 40.87563 -112.01275 12818 ft 310 kts 254°
2026-04-27 01:55 40.86910 -112.03918 12440 ft 301 kts 255°
2026-04-27 01:55 40.86263 -112.06531 12055 ft 294 kts 255°
2026-04-27 01:56 40.85015 -112.11563 11302 ft 285 kts 255°
2026-04-27 01:56 40.84409 -112.14002 10930 ft 282 kts 255°
2026-04-27 01:56 40.83826 -112.16448 10554 ft 279 kts 257°
2026-04-27 01:57 40.83434 -112.18950 10177 ft 275 kts 265°
2026-04-27 01:57 40.83209 -112.21433 9801 ft 274 kts 266°
2026-04-27 01:57 40.83001 -112.23899 9474 ft 271 kts 266°
2026-04-27 01:57 40.82775 -112.26356 9151 ft 269 kts 265°
2026-04-27 01:58 40.82643 -112.28812 8812 ft 266 kts 275°
2026-04-27 01:58 40.82741 -112.31220 8498 ft 265 kts 273°
2026-04-27 01:58 40.82452 -112.33585 8175 ft 266 kts 248°
2026-04-27 01:58 40.81366 -112.35535 8094 ft 258 kts 225°
2026-04-27 01:59 40.80100 -112.37128 7924 ft 255 kts 214°
2026-04-27 01:59 40.78374 -112.37650 7406 ft 265 kts 174°
2026-04-27 01:59 40.76659 -112.36914 7117 ft 253 kts 159°
2026-04-27 01:59 40.75030 -112.36167 6827 ft 243 kts 162°
2026-04-27 02:00 40.73431 -112.35572 6578 ft 233 kts 167°
2026-04-27 02:00 40.71854 -112.35265 6315 ft 226 kts 176°
2026-04-27 02:00 40.70309 -112.35237 5970 ft 224 kts 180°
2026-04-27 02:00 40.68823 -112.35263 5616 ft 203 kts 180°
2026-04-27 02:01 40.67500 -112.35276 5389 ft 174 kts 178°
2026-04-27 02:01 40.66377 -112.35240 5187 ft 154 kts 178°
2026-04-27 02:01 40.65375 -112.35208 4982 ft 133 kts 178°
2026-04-27 02:01 40.64492 -112.35165 4737 ft 120 kts 176°
2026-04-27 02:02 40.63702 -112.35139 4574 ft 112 kts 178°
2026-04-27 02:02 40.62927 -112.35117 4440 ft 110 kts 177°
2026-04-27 02:02 40.62183 -112.35098 4317 ft 100 kts 177°
2026-04-27 02:02 40.61556 -112.35085 4294 ft 79 kts 179°
2026-04-27 02:03 40.61081 -112.35078 4306 ft 54 kts 179°
2026-04-27 02:03 40.60887 -112.35073 4312 ft 15 kts 170°
2026-04-27 02:03 40.60856 -112.34965 4313 ft 13 kts 90°
2026-04-27 02:03 40.60885 -112.34894 4314 ft 2 kts 88°
2026-04-27 02:04 40.60885 -112.34881 4314 ft 3 kts 95°
2026-04-27 02:04 40.60892 -112.34856 4314 ft 3 kts 358°
2026-04-27 02:04 40.60907 -112.34856 4313 ft 0 kts 358°